Location: Gostynin
(52.4203°N, 19.4677°E)
Time: 11:51:07
(UTC+02:00)

ISS - Visible Passes

Search period start: 22 September 2018 00:00
Search period end: 02 October 2018 00:00
Orbit: 403 x 408 km, 51.6° (Epoch: 22 September)

Date Brightness Start Highest point End Pass type
(mag) Time Alt. Az. Time Alt. Az. Time Alt. Az.
22 Sep -1.4 20:28:17 10° SSW 20:28:50 13° S 20:28:50 13° S visible
23 Sep -1.8 19:37:30 10° S 19:39:04 13° SE 19:39:34 13° SE visible
23 Sep -1.1 21:11:48 10° SW 21:12:17 13° SW 21:12:17 13° SW visible
24 Sep -2.8 20:20:11 10° SW 20:22:49 31° SSE 20:22:49 31° SSE visible
25 Sep -2.4 19:28:45 10° SSW 19:31:24 22° SSE 19:33:12 15° ESE visible
25 Sep -2.0 21:04:16 10° WSW 21:05:53 26° WSW 21:05:53 26° WSW visible
26 Sep -3.6 20:12:27 10° WSW 20:15:39 49° SSE 20:16:08 45° SE visible
26 Sep -0.5 21:48:44 10° W 21:48:48 10° W 21:48:48 10° W visible
27 Sep -3.0 19:20:43 10° SW 19:23:48 36° SSE 19:26:17 14° E visible
27 Sep -2.5 20:56:48 10° W 20:58:57 37° WSW 20:58:57 37° WSW visible
28 Sep -3.8 20:04:52 10° WSW 20:08:10 68° SSE 20:09:02 44° ESE visible
28 Sep -0.7 21:41:18 10° W 21:41:42 13° W 21:41:42 13° W visible
29 Sep -3.5 19:12:59 10° WSW 19:16:14 55° SSE 19:19:03 13° E visible
29 Sep -2.8 20:49:20 10° W 20:51:43 44° W 20:51:43 44° W visible
30 Sep -3.9 19:57:21 10° W 20:00:40 79° S 20:01:42 41° E visible
30 Sep -0.7 21:33:50 10° W 21:34:21 14° W 21:34:21 14° W visible
01 Oct -3.8 19:05:23 10° WSW 19:08:41 72° S 19:11:39 12° E visible
01 Oct -2.9 20:41:50 10° W 20:44:18 45° WSW 20:44:18 45° WSW visible
